Change the Weather History Date:

Wednesday, May 15, 2013

  Actual Average Record
Temperature  
Mean Temperature 74 °F -  
Max Temperature 85 °F 75 °F 91 °F (2012)
Min Temperature 64 °F 47 °F 33 °F (1959)
Cooling Degree Days 10    
Growing Degree Days 24 (Base 50)    
Moisture  
Dew Point 56 °F    
Average Humidity 53    
Maximum Humidity 78    
Minimum Humidity 35    
Precipitation  
Precipitation 0.00 in - - ()
Sea Level Pressure  
Sea Level Pressure 29.83 in    
Wind  
Wind Speed 8 mph (ESE)    
Max Wind Speed 16 mph    
Max Gust Speed 23 mph    
Visibility 10 miles    
Events Thunderstorm    
Averages and records for this station are not official NWS values.
T = Trace of Precipitation, MM = Missing Value Source: NWS Daily Summary

Daily Weather History Graph

Daily Weather History Graph

Search for Another Location

Airport or City:

Trip Planner

Search our weather history database for the weather conditions in past years. The results will help you decide how hot, cold, wet, or windy it might be!

Date:

Astronomy

May. 15, 2013 Rise Set
Actual Time 6:10 AM CDT 8:36 PM CDT
Civil Twilight 5:39 AM CDT 9:07 PM CDT
Nautical Twilight 5:01 AM CDT 9:45 PM CDT
Astronomical Twilight 4:19 AM CDT 10:28 PM CDT
Moon 10:47 AM CDT (5/15) 12:23 AM CDT (5/15)
Length of Visible Light 15h 27m
Length of Day
14h 25m
Waxing Crescent, 27% of the Moon is Illuminated
May 15
Waxing Crescent
May 17
First Quarter
May 24
Full
May 31
Last Quarter
Jun 8
New

Hourly Weather History & Observations

Time (CDT) Temp. Heat Index Dew Point Humidity Pressure Visibility Wind Dir Wind Speed Gust Speed Precip Events Conditions
12:15 AM 74.8 °F - 52.7 °F 46% 29.78 in 10.0 mi SSW 12.7 mph - N/A   Clear
12:35 AM 74.3 °F - 53.1 °F 47% 29.78 in 10.0 mi SSW 15.0 mph - N/A   Clear
12:55 AM 73.4 °F - 53.6 °F 50% 29.80 in 10.0 mi SSW 10.4 mph - N/A   Clear
1:15 AM 72.1 °F - 54.0 °F 53% 29.81 in 10.0 mi WSW 3.5 mph - N/A   Clear
1:35 AM 70.9 °F - 54.1 °F 55% 29.81 in 10.0 mi WSW 4.6 mph - N/A   Clear
1:55 AM 66.4 °F - 54.9 °F 66% 29.82 in 10.0 mi North 6.9 mph - N/A   Clear
2:15 AM 67.6 °F - 54.5 °F 63% 29.82 in 10.0 mi Calm Calm - N/A   Clear
2:35 AM 67.1 °F - 54.7 °F 64% 29.82 in 10.0 mi Calm Calm - N/A   Clear
2:55 AM 68.0 °F - 54.5 °F 62% 29.82 in 10.0 mi SSE 4.6 mph - N/A   Clear
3:15 AM 66.4 °F - 54.5 °F 66% 29.83 in 10.0 mi ESE 4.6 mph - N/A   Clear
3:35 AM 64.4 °F - 54.5 °F 70% 29.82 in 10.0 mi SSE 6.9 mph - N/A   Clear
3:55 AM 65.3 °F - 55.0 °F 69% 29.82 in 10.0 mi SSE 6.9 mph - N/A   Clear
4:15 AM 64.6 °F - 55.8 °F 73% 29.81 in 10.0 mi SSE 9.2 mph - N/A   Clear
4:35 AM 66.2 °F - 55.6 °F 69% 29.81 in 10.0 mi South 10.4 mph - N/A   Clear
4:55 AM 66.2 °F - 55.4 °F 68% 29.81 in 10.0 mi SSE 10.4 mph - N/A   Clear
5:15 AM 66.4 °F - 55.4 °F 68% 29.81 in 10.0 mi SSE 9.2 mph - N/A   Clear
5:35 AM 66.4 °F - 55.4 °F 68% 29.82 in 10.0 mi SSE 8.1 mph - N/A   Clear
5:55 AM 66.2 °F - 55.4 °F 68% 29.81 in 10.0 mi South 9.2 mph - N/A   Clear
6:15 AM 65.3 °F - 55.4 °F 70% 29.82 in 10.0 mi South 9.2 mph - N/A   Clear
6:35 AM 64.8 °F - 55.6 °F 72% 29.83 in 10.0 mi SSE 8.1 mph - N/A   Clear
6:55 AM 66.4 °F - 55.6 °F 68% 29.83 in 10.0 mi SSE 4.6 mph - N/A   Clear
7:15 AM 65.5 °F - 56.3 °F 72% 29.85 in 10.0 mi NNE 6.9 mph - N/A   Clear
7:35 AM 68.0 °F - 55.9 °F 65% 29.86 in 10.0 mi Calm Calm - N/A   Clear
7:55 AM 69.1 °F - 55.9 °F 63% 29.86 in 10.0 mi ESE 3.5 mph - N/A   Clear
8:15 AM 70.0 °F - 56.1 °F 61% 29.86 in 10.0 mi East 3.5 mph - N/A   Clear
8:35 AM 71.6 °F - 56.5 °F 59% 29.86 in 10.0 mi East 5.8 mph - N/A   Clear
8:55 AM 73.0 °F - 56.7 °F 56% 29.85 in 10.0 mi ESE 5.8 mph - N/A   Clear
9:15 AM 73.8 °F - 56.7 °F 55% 29.85 in 10.0 mi SE 4.6 mph - N/A   Clear
9:35 AM 73.4 °F - 56.8 °F 56% 29.86 in 10.0 mi SE 3.5 mph - N/A   Clear
9:55 AM 74.8 °F - 57.0 °F 54% 29.87 in 10.0 mi Calm Calm - N/A   Clear
10:15 AM 75.4 °F - 57.2 °F 53% 29.88 in 10.0 mi ESE 4.6 mph - N/A   Clear
10:35 AM 77.5 °F - 57.6 °F 50% 29.88 in 10.0 mi East 4.6 mph - N/A   Clear
10:55 AM 77.9 °F - 57.2 °F 49% 29.88 in 10.0 mi NE 9.2 mph - N/A   Clear
11:15 AM 78.1 °F - 57.4 °F 49% 29.88 in 10.0 mi ENE 8.1 mph - N/A   Clear
11:35 AM 78.8 °F - 56.7 °F 46% 29.88 in 10.0 mi ENE 13.8 mph 18.4 mph N/A   Clear
11:55 AM 78.6 °F - 54.9 °F 44% 29.88 in 10.0 mi ENE 12.7 mph 18.4 mph N/A   Clear
12:15 PM 79.3 °F - 54.9 °F 43% 29.87 in 10.0 mi ENE 11.5 mph - N/A   Clear
12:35 PM 78.8 °F - 53.6 °F 42% 29.86 in 10.0 mi NE 13.8 mph 19.6 mph N/A   Clear
12:55 PM 80.4 °F - 52.3 °F 38% 29.86 in 10.0 mi ENE 12.7 mph 23.0 mph N/A   Clear
1:15 PM 81.3 °F 80.7 °F 53.8 °F 38% 29.85 in 10.0 mi ENE 15.0 mph 20.7 mph N/A   Clear
1:35 PM 81.5 °F - 52.0 °F 36% 29.85 in 10.0 mi ENE 15.0 mph 23.0 mph N/A   Clear
1:55 PM 82.0 °F - 51.6 °F 35% 29.85 in 10.0 mi ENE 13.8 mph 21.9 mph N/A   Clear
2:15 PM 82.9 °F - 52.5 °F 35% 29.85 in 10.0 mi ESE 16.1 mph - N/A   Clear
2:35 PM 83.1 °F 81.9 °F 53.8 °F 36% 29.84 in 10.0 mi ESE 15.0 mph 21.9 mph N/A   Clear
2:55 PM 83.8 °F 82.7 °F 55.2 °F 37% 29.84 in 10.0 mi ESE 15.0 mph 20.7 mph N/A   Clear
3:15 PM 82.6 °F 81.8 °F 55.0 °F 39% 29.83 in 10.0 mi East 12.7 mph - N/A   Clear
3:35 PM 82.9 °F 82.1 °F 55.6 °F 39% 29.83 in 10.0 mi East 10.4 mph 17.3 mph N/A   Clear
3:55 PM 83.7 °F 82.5 °F 54.9 °F 37% 29.82 in 10.0 mi East 11.5 mph - N/A   Clear
4:15 PM 83.8 °F 82.7 °F 55.0 °F 37% 29.81 in 10.0 mi East 9.2 mph 18.4 mph N/A   Clear
4:35 PM 84.4 °F 83.2 °F 55.6 °F 37% 29.80 in 10.0 mi East 12.7 mph - N/A   Clear
4:55 PM 84.7 °F 83.9 °F 57.2 °F 39% 29.80 in 10.0 mi East 11.5 mph 18.4 mph N/A   Clear
5:15 PM 85.1 °F 84.3 °F 57.4 °F 39% 29.80 in 10.0 mi ESE 10.4 mph 16.1 mph N/A   Clear
5:35 PM 85.1 °F 84.1 °F 56.8 °F 38% 29.79 in 10.0 mi ESE 10.4 mph - N/A   Clear
5:55 PM 85.5 °F 84.3 °F 56.7 °F 37% 29.78 in 10.0 mi East 10.4 mph - N/A   Clear
6:15 PM 84.6 °F 83.5 °F 56.5 °F 38% 29.78 in 10.0 mi East 8.1 mph - N/A   Clear
6:35 PM 83.3 °F 82.6 °F 56.7 °F 40% 29.78 in 10.0 mi ENE 8.1 mph - N/A   Clear
6:55 PM 84.4 °F 83.7 °F 57.6 °F 40% 29.78 in 10.0 mi ENE 11.5 mph - N/A   Clear
7:15 PM 83.5 °F 82.8 °F 57.0 °F 40% 29.77 in 10.0 mi ENE 10.4 mph - N/A   Clear
7:35 PM 82.9 °F 82.4 °F 56.8 °F 41% 29.77 in 10.0 mi ENE 9.2 mph - N/A   Clear
7:55 PM 82.0 °F 81.8 °F 57.4 °F 43% 29.77 in 10.0 mi East 6.9 mph - N/A Thunderstorm Clear
8:15 PM 81.7 °F 81.6 °F 57.7 °F 44% 29.78 in 10.0 mi East 6.9 mph - N/A   Mostly Cloudy
8:35 PM 80.6 °F 80.9 °F 58.1 °F 46% 29.79 in 10.0 mi East 6.9 mph - N/A Thunderstorm Mostly Cloudy
8:55 PM 79.9 °F - 58.6 °F 48% 29.80 in 10.0 mi SE 5.8 mph - N/A   Mostly Cloudy
9:15 PM 78.8 °F - 57.9 °F 49% 29.81 in 10.0 mi SSE 9.2 mph - N/A   Overcast
9:35 PM 77.7 °F - 58.8 °F 52% 29.81 in 10.0 mi SE 6.9 mph - N/A   Scattered Clouds
9:55 PM 74.8 °F - 59.0 °F 58% 29.82 in 10.0 mi ESE 4.6 mph - N/A   Clear
10:15 PM 74.3 °F - 60.1 °F 61% 29.83 in 10.0 mi Calm Calm - N/A   Scattered Clouds
10:35 PM 73.8 °F - 62.8 °F 68% 29.83 in 10.0 mi South 5.8 mph - N/A   Scattered Clouds
10:55 PM 73.0 °F - 63.5 °F 72% 29.84 in 10.0 mi South 6.9 mph - N/A   Clear
11:15 PM 72.7 °F - 65.3 °F 78% 29.84 in 10.0 mi SSW 4.6 mph - N/A   Clear
11:35 PM 72.0 °F - 64.9 °F 78% 29.85 in 10.0 mi West 3.5 mph - N/A   Clear
11:55 PM 71.1 °F - 64.0 °F 78% 29.85 in 10.0 mi West 4.6 mph - N/A   Clear